Location: Maccacari
(45.1333°N, 11.1333°E)
Time: 19:39:49
(UTC+00:00)

Tiros 1 despin weight - Pass Details

Date: 29 January 2021
Orbit: 593 x 642 km, 48.2° (Epoch: 26 February)

Event Time Altitude Azimuth Distance (km) Brightness Sun altitude
Rises 11:31:22 0° 226° (SW) 2,911 ? 27.1°
Reaches altitude 10° 11:33:46 10° 221° (SW) 1,999 ? 27.1°
Maximum altitude 11:38:10 46° 148° (SSE) 841 ? 27.0°
Drops below altitude 10° 11:42:30 10° 76° (ENE) 1,977 ? 27.0°
Sets 11:44:51 0° 70° (ENE) 2,876 ? 27.0°
